User: anonymous   Login
Location: Radomski Observatory
(40.2854°N, 79.5145°W)
Time: 03:46:09
(UTC-04:00)
Language:

Uosat F - Orbit

View from above orbital plane
View from above orbital plane
View from above satellite
View from above satellite

Ground track
Ground track

The orbit data is extracted from the following two-line orbital elements,

1 21575U 91050B   16178.92914884 +.00000026 +00000-0 +22543-4 0  9991
2 21575 098.7605 180.7238 0006163 279.3955 080.6536 14.40745887309921
Epoch (UTC): 26 June 2016 22:17:58
Eccentricity: 0.0006163
inclination: 98.7605°
perigee height: 751 km
apogee height: 760 km
right ascension of ascending node: 180.7238°
argument of perigee: 279.3955°
revolutions per day: 14.40745887
mean anomaly at epoch: 80.6536°
orbit number at epoch: 30992

The dashed part of the orbit path shows where the satellite is in the earth's shadow,  

DLR